SCP
0 0 0 0 0 0 0 0 0 0 0 1 2 2 2 2 2 2 3 3 3 3 4 4 6 7 8 8 9 9 8 8 7 6 5 4 4 4 4 3 4 5 5 4
0 0 0 0 0 0 0 0 0 0 0 1 1 2 3 3 2 2 3 3 3 3 4 5 6 7 8 8 9 9 9 8 8 7 5 4 4 4 4 3 4 5 5 4
0 0 0 0 0 0 0 0 0 0 0 0 1 2 3 3 3 3 2 2 2 3 5 6 6 7 9 9 9 9 10 9 9 7 6 5 4 4 4 4 4 5 4 4
0 0 0 0 0 0 0 0 0 0 0 0 0 1 2 3 3 3 2 2 2 4 6 7 7 8 10 11 11 11 11 11 9 8 7 6 5 4 4 5 5 5 5 4
0 0 0 0 0 0 0 0 0 0 0 0 0 0 1 2 3 2 2 2 3 5 7 7 8 9 10 11 12 12 12 11 9 8 7 6 6 5 5 5 6 7 6 5
0 0 0 0 0 0 0 0 0 0 0 0 0 0 1 2 2 2 2 3 4 6 6 8 10 10 9 9 10 11 11 11 10 8 6 6 6 5 5 6 7 8 8 7
0 0 0 0 0 0 0 0 0 0 0 0 0 0 1 2 2 3 5 5 6 5 6 8 11 10 9 8 8 9 10 11 10 8 6 5 5 5 5 6 8 9 10 10
0 0 0 0 0 0 0 0 0 0 0 0 0 0 1 2 3 4 5 5 5 4 5 8 10 9 9 9 8 9 10 10 9 8 6 5 5 5 5 6 7 8 10 10
0 0 0 0 0 0 0 0 0 0 0 0 0 1 1 2 3 4 4 4 4 5 7 9 9 9 9 9 9 10 11 10 9 8 6 5 5 5 5 5 6 7 8 9
0 0 0 0 0 0 0 0 0 0 0 0 0 1 2 3 4 4 3 4 5 6 8 9 8 8 8 8 8 10 13 13 11 9 6 5 5 5 5 5 5 6 8 9
0 0 0 0 0 0 0 0 0 0 0 0 0 1 2 3 3 3 3 4 5 7 7 7 6 6 7 7 7 9 13 15 14 10 7 6 6 5 5 5 5 6 8 11
0 0 0 0 0 0 0 0 0 1 1 1 1 2 3 4 5 5 5 5 6 6 6 4 4 4 6 6 7 9 12 16 15 12 8 7 6 6 6 6 6 7 9 12
0 0 0 0 0 0 0 0 1 1 1 1 1 2 4 5 7 10 8 6 5 5 4 4 4 4 5 6 6 8 12 15 15 13 9 7 6 6 6 7 7 8 10 11
0 0 1 1 0 0 0 0 0 1 1 1 1 3 5 6 10 13 13 9 6 4 4 4 4 4 5 5 5 6 10 13 14 13 10 7 6 6 7 9 10 10 9 8
0 1 1 0 0 0 0 0 0 1 1 1 1 3 5 7 10 13 13 10 7 5 5 4 5 5 4 4 3 4 7 10 11 11 9 7 7 7 9 11 12 11 8 7
1 1 1 0 0 0 0 0 0 0 1 1 2 4 5 6 8 9 9 8 7 6 6 5 6 5 4 3 3 3 4 6 8 8 8 7 7 8 10 13 13 11 8 6
2 2 1 1 0 0 1 1 1 1 1 2 4 5 5 4 5 6 6 5 5 6 6 6 7 6 5 4 3 3 3 4 5 5 6 7 7 8 11 13 12 9 7 6
2 2 2 1 1 1 1 1 1 1 2 3 4 6 5 5 5 6 6 5 5 5 6 7 9 8 6 5 4 3 3 3 4 5 6 7 7 8 11 11 9 7 5 5
2 2 2 2 1 1 1 1 1 1 2 3 4 5 4 4 5 6 8 9 9 8 8 10 11 9 7 5 4 4 4 4 5 5 5 6 6 7 8 8 7 6 5 5
1 1 1 1 1 1 1 1 2 2 2 3 4 4 3 4 4 5 7 10 12 12 11 12 11 9 7 5 4 4 4 4 5 6 6 5 5 6 6 6 6 7 6 5
1 1 1 1 1 1 1 1 2 3 3 4 5 5 5 5 4 4 5 8 11 12 12 13 11 8 6 5 4 4 4 4 5 6 6 6 6 6 6 6 7 7 7 6
1 1 1 1 1 1 2 2 3 4 4 4 5 6 6 5 4 3 5 7 9 11 12 13 11 8 6 5 4 4 4 4 5 6 7 8 8 7 6 6 7 7 7 8
1 1 1 1 1 2 3 4 4 4 4 4 5 7 8 6 4 4 6 8 8 9 11 12 10 7 6 5 4 4 4 4 5 6 8 9 9 8 7 7 8 8 8 8
1 1 2 2 2 2 3 3 3 3 3 4 4 6 8 7 5 5 7 8 7 8 10 10 9 7 6 5 4 4 4 4 5 7 8 8 8 8 8 8 9 9 8 8
1 1 1 1 2 2 3 3 2 2 2 3 3 4 6 6 5 6 7 7 7 8 11 11 10 8 6 5 4 4 4 4 6 7 7 6 6 7 8 9 7 7 7 6
1 1 1 1 2 2 3 2 2 2 2 2 2 3 4 5 5 6 7 7 7 10 13 13 11 9 6 5 5 4 4 5 6 7 6 5 4 5 7 8 5 4 4 4
Wind_Speed
14 13 14 15 16 15 14 14 12 10 8 9 10 10 9 9 9 9 9 9 9 9 9 8 10 11 10 8 8 7 6 6 4 3 3 2 2 2 1 2 2 2 1 1
13 17 17 15 14 15 16 16 14 11 7 7 9 11 10 9 9 8 8 9 9 9 11 10 9 10 9 9 9 8 7 6 5 4 3 3 2 2 2 1 3 3 1 1
18 14 15 15 15 15 15 14 13 12 9 9 9 12 11 10 10 9 8 8 9 10 12 12 11 10 10 9 9 8 7 7 5 5 3 3 2 1 2 2 2 2 2 1
17 17 14 13 15 14 13 13 13 14 12 9 11 10 10 11 11 11 10 8 8 9 11 11 11 10 10 9 9 7 7 7 5 5 4 4 3 2 2 2 2 2 2 2
14 14 15 14 13 13 13 11 13 14 12 12 13 12 9 9 11 11 10 9 8 7 9 11 11 10 9 9 9 8 7 6 6 5 4 3 3 2 2 2 3 2 2 2
17 14 14 14 13 12 11 12 14 13 12 14 15 14 9 8 9 10 10 8 7 8 8 9 10 10 9 9 9 9 8 7 6 5 4 3 3 2 2 2 3 2 2 2
17 16 13 12 13 13 13 11 9 10 10 12 13 12 6 5 5 6 8 8 8 7 7 8 9 10 10 9 9 10 9 8 7 6 4 4 3 3 2 2 3 2 2 2
14 14 14 13 13 11 13 14 11 10 10 9 9 10 6 5 4 4 5 8 9 8 8 8 8 8 9 9 9 9 9 8 7 6 5 3 3 2 2 2 2 2 2 2
11 11 13 14 13 14 14 14 14 13 14 12 8 6 3 4 7 7 6 7 8 8 8 8 8 7 7 8 8 8 9 8 7 6 5 4 3 2 2 2 2 1 1 2
12 11 10 11 11 14 15 13 9 10 11 12 11 9 7 8 7 9 8 8 7 8 8 8 8 7 7 7 7 7 8 7 7 6 5 5 4 4 3 3 2 2 1 1
12 11 11 11 13 14 14 15 11 9 11 10 9 5 2 5 5 6 6 6 8 8 8 7 7 7 6 6 6 6 7 7 7 6 4 4 4 3 3 3 3 2 2 2
9 9 10 13 12 11 13 13 12 10 10 10 9 4 2 5 6 4 5 6 7 8 7 7 8 7 6 6 5 5 6 6 7 6 5 4 4 4 3 3 3 2 2 2
6 7 9 11 11 11 12 13 13 12 9 10 10 5 4 4 5 4 6 8 7 7 8 8 7 7 6 5 5 4 4 5 6 7 6 5 4 4 3 3 3 3 2 2
5 7 11 12 9 9 12 13 12 12 10 10 11 5 3 2 3 3 5 8 7 6 7 7 7 6 6 5 5 4 3 4 5 6 5 5 4 4 3 3 3 3 3 2
6 10 13 15 15 14 14 14 14 14 12 12 10 7 5 4 4 5 5 6 8 7 7 7 7 6 6 6 5 4 3 3 4 4 4 4 4 3 3 3 3 3 2 2
5 8 11 15 16 15 15 14 14 14 13 12 11 8 4 6 5 5 6 6 7 7 7 7 7 6 6 6 5 4 3 3 3 4 4 4 4 4 4 3 4 3 2 2
6 7 11 13 14 14 15 13 13 13 11 10 10 7 3 2 4 4 5 6 6 7 7 7 6 6 5 5 4 4 4 4 3 3 4 4 4 3 3 4 4 3 3 2
7 7 7 10 11 14 9 8 10 11 9 7 5 3 2 2 3 4 4 5 5 5 6 7 6 5 5 5 5 4 4 4 4 3 4 4 4 3 3 3 3 3 3 2
8 7 7 8 10 11 9 6 7 8 8 5 4 3 3 4 4 4 4 4 4 5 6 6 6 5 5 5 5 4 3 3 3 3 3 4 4 4 4 4 3 3 2 2
10 8 8 9 10 9 5 6 8 8 7 2 2 2 2 4 3 2 4 4 5 5 6 6 6 5 5 4 4 4 3 3 3 2 2 3 3 4 4 4 4 3 3 2
11 11 12 12 11 6 4 8 8 6 2 3 3 2 1 1 3 4 4 4 4 5 6 6 6 5 5 4 4 4 3 2 2 2 2 2 3 3 3 4 4 3 3 3
8 9 10 10 10 6 4 5 2 2 4 3 4 4 4 5 5 5 4 4 4 4 5 5 5 5 4 4 4 4 3 2 1 2 2 2 2 3 3 4 4 3 4 4
3 3 3 3 3 1 3 3 3 3 4 4 4 4 3 3 3 3 3 3 3 3 3 4 5 5 4 3 3 3 3 2 2 2 2 2 2 2 3 4 4 3 3 3
2 3 2 2 2 2 3 3 4 3 3 4 3 2 0 1 2 2 3 2 1 1 2 2 4 4 4 3 3 3 3 2 2 2 2 2 3 3 3 3 3 3 3 3
4 4 3 3 3 3 2 4 4 4 3 2 1 1 0 1 1 1 2 2 2 1 1 2 3 4 4 3 3 3 3 3 2 2 2 2 3 3 2 2 1 1 1 1
3 3 3 2 3 3 2 2 3 2 2 2 2 2 2 2 1 1 2 2 2 3 3 3 3 4 4 4 3 3 3 3 3 3 2 2 2 2 3 3 2 4 3 4
Wind_Direction
214 222 229 230 232 248 259 268 267 261 237 219 236 245 228 221 217 211 196 185 181 173 164 155 155 157 158 155 153 154 156 146 151 151 166 171 163 155 159 150 130 125 134 143
224 226 233 240 242 246 255 263 269 267 247 237 239 248 242 226 221 212 198 187 180 172 156 156 159 158 158 159 156 157 156 153 158 155 158 165 161 167 162 141 136 143 156 171
230 232 225 234 244 247 249 255 265 271 263 245 252 248 243 229 214 207 206 198 183 173 162 159 166 164 160 160 161 163 158 156 162 156 158 154 155 170 153 150 148 152 166 159
238 241 241 234 238 244 249 252 263 269 265 252 247 251 228 218 210 206 200 200 191 172 160 161 167 164 161 158 153 150 152 152 158 156 162 167 164 168 162 156 146 161 169 167
240 238 241 241 242 245 254 259 257 261 262 262 255 255 242 217 207 202 194 194 187 171 163 166 162 159 157 156 153 149 146 150 152 158 159 166 161 161 149 148 145 168 165 170
250 245 240 243 246 247 252 260 258 250 251 249 251 255 240 233 208 194 185 181 172 167 161 157 154 154 154 154 155 152 150 150 153 156 156 160 164 154 149 150 153 170 159 156
242 240 238 241 240 237 236 243 245 238 234 241 241 247 237 223 210 179 167 169 162 157 150 145 151 157 156 154 156 153 151 154 157 159 162 163 169 165 154 160 162 163 157 158
234 230 227 226 232 239 230 235 242 249 251 256 243 238 232 204 153 142 153 155 151 160 154 147 149 151 151 150 147 150 152 157 162 160 158 157 167 166 150 163 168 154 168 172
246 237 222 224 224 235 236 235 248 259 265 265 252 225 197 180 147 154 168 156 157 158 151 145 142 142 147 146 145 151 153 154 158 159 156 148 147 156 162 156 152 149 168 157
260 268 244 220 222 231 240 242 245 251 260 260 256 230 197 189 178 167 163 156 156 148 145 141 136 139 140 137 139 146 142 151 156 161 168 159 162 168 162 145 143 150 147 123
257 259 254 236 223 227 229 233 238 250 259 263 261 251 185 161 166 171 162 157 149 142 141 138 130 128 125 128 135 142 143 152 153 156 153 141 153 159 153 152 154 156 147 135
251 261 256 249 241 241 241 240 237 237 245 257 266 255 195 147 151 159 153 139 133 136 134 132 132 132 133 137 136 134 149 155 155 150 145 146 151 154 153 152 157 156 153 154
255 259 251 245 233 228 238 244 244 246 245 250 254 237 158 134 142 153 143 127 122 135 134 138 138 139 139 137 133 131 147 154 153 146 148 149 156 155 155 157 153 147 148 157
257 254 255 254 255 238 240 250 251 246 243 250 250 242 168 155 138 135 126 131 139 146 142 145 144 143 141 138 137 134 133 146 146 142 145 150 158 161 160 156 150 153 156 157
248 250 256 263 266 263 253 244 243 246 250 256 262 243 189 166 160 149 136 141 145 144 149 150 148 142 143 142 140 142 148 144 142 144 147 148 153 156 158 156 152 145 152 155
237 256 262 263 259 258 258 254 248 248 251 254 258 255 193 162 147 137 137 149 145 150 149 144 142 144 147 148 149 151 150 144 138 146 148 150 158 162 161 156 151 148 142 133
248 249 254 258 260 261 250 245 248 247 248 255 260 260 216 152 138 149 151 151 153 158 151 151 150 150 151 150 152 157 157 148 148 148 151 156 154 160 162 161 149 145 136 127
248 265 258 256 258 250 253 258 252 250 246 238 228 247 215 134 111 107 116 131 139 151 152 150 147 150 152 144 145 152 158 156 162 161 161 161 158 155 154 145 138 138 134 134
230 242 260 256 247 253 258 272 275 270 250 230 223 218 199 139 129 119 91 88 105 122 129 135 141 152 149 147 147 150 153 154 159 168 169 169 165 158 162 159 152 149 144 156
217 217 241 254 255 251 268 293 291 273 242 217 228 225 211 163 184 126 81 73 87 98 112 125 136 139 141 146 146 150 155 154 159 164 170 171 167 162 163 153 155 159 164 177
212 216 230 245 253 257 309 302 290 249 249 5 18 18 32 73 75 91 81 80 87 99 118 125 134 140 146 149 145 147 151 155 165 149 151 152 151 153 159 152 157 167 177 181
219 221 226 237 246 250 316 296 303 3 12 21 38 33 51 79 95 98 93 86 90 103 123 131 136 138 141 143 145 152 152 146 147 129 130 134 152 183 168 162 171 183 188 187
240 252 250 241 245 306 0 25 36 25 359 33 50 50 42 87 112 107 92 90 82 103 121 134 137 137 139 143 149 155 145 146 146 135 134 149 172 185 163 171 180 190 198 199
322 320 256 247 250 302 341 20 22 34 31 33 63 78 338 102 115 118 106 101 92 110 120 132 144 144 143 150 151 148 154 154 155 156 155 171 185 189 173 187 187 193 195 201
321 312 278 239 287 306 349 18 11 33 29 25 49 47 324 101 126 128 127 150 165 159 152 162 158 156 161 161 151 154 154 157 161 161 172 205 203 190 169 170 168 186 131 156
299 305 299 296 324 307 322 360 3 12 25 18 4 2 38 64 77 120 143 152 162 167 155 155 157 160 161 163 160 156 155 159 165 180 192 213 213 190 181 168 131 57 96 109